Showing default

TURKSAT 1C, 23949

Orbit data source: Space-Track

TURKSAT 1C, 23949 is a payload satellite owned by Turk (TR) in GEO that was launched on Tue, 09 Jul 1996 UTC via an ARIANE 44L launch vehicle from the French Guiana (FRGUI). Payload-class satellites include a variety of spacecraft equipped with specific instruments for various scientific and technological missions. These include communications satellites like Starlink; space stations such as the ISS; scientific satellites like the Hubble; Earth observation satellites from companies like Planet Labs, Umbra, and HawkEye 360; GPS; miniature CubeSats for education and research; and military/defense satellites.

Not visible in the next 10 days
Identifier
23949, 1996-040B
Orbit
GEO
Last TLE update
6 hours ago
Origin
Manufacturer
Ae/Cannes
Mission
Non-operational Civil Communications
Bus & Motor
SPACEBUS 2000, S400
Mass
1,743 kg wet, 789 kg dry
Launch date (UTC)
1996-07-09 (29 years ago)
Launch vehicle
ARIANE 44L
Launch site
French Guiana (FRGUI)
Object type
Payload
Rocket body
Debris
Shape & HBR
Hex Poly + 2 Pan, 2.2 m
Radar Cross Section
2.935 m², Large (>1 m²)

Expand to show TLE details & history

TLE from 6 hours ago
0 TURKSAT 1C
1 23949U 96040B   25127.98336662  .00000087  00000-0  00000-0 0  9991
2 23949  11.4344  33.2323 0004095 146.4881  56.9155  1.00261045105615
Epoch: 2025-05-07T23:36Z
Definitive object data (Epoch: 2025-05-07T23:36:02.875Z)
Latitude
-4.54181°
Longitude
16.20023°
Altitude
35,780.369 km
Speed
3.075 km/s
True Right ascension
15h 45m 05s
True Declination
-4° 32' 14"
Sunlit
Object was in daylight at TLE epoch
Visualization TLE readout
Latitude
-10.44187°
Longitude
107.50213°
Altitude
35,805.657 km
Speed
3.073 km/s
Apparent Right ascension
22h 11m 47s
Apparent Declination
-14° 48' 33"
Sunlit
Object is in daylight
Visualization observer readout
Local Sidereal Time
13:41:45
Azimuth
76.672° E
Elevation
-37.989°
Doppler factor
1
Orbital elements
Apogee altitude
35,807.883 km
Perigee altitude
35,773.347 km
Semi-major axis
42,168.752 km
Eccentricity
0.0004095
Inclination
11.4344°
RAAN
33.2323°
Arg. of periapsis
146.4881°
True anomaly
56.95483°
Mean anomaly
56.9155°
Eccentric anomaly
56.93516°
Mean motion
0.25064 °/min
BSTAR
Unknown
Orbital period
1436.3 mins
Loading historical data...
23949 neighbors
Loading maneuver chart data...
Loading SW <> Apogee altitude chart data...
Loading historical data...
Loading historical data...
Loading historical data...
Loading historical data...
Loading historical data...
Loading historical data...
Loading historical data...

TURKSAT 1C Visibility forecast

Observer location: undefined°, undefined°

TURKSAT 1C is not visible in the next 10 days
Span
Click to sort rows by Start time (UTC) header in descending order
Start Az.
Max El. time (UTC)
Max El. Az.
Max El.
End time (UTC)
End Az.
|